Location: Demre
(36.2444°N, 29.9850°E)
Time: 05:01:17
(UTC+00:00)

Spot 4 Rocket - Pass Details

Date: 11 March 2026
Orbit: 769 x 772 km, 98.8° (Epoch: 21 April)

Event Time Altitude Azimuth Distance (km) Brightness Sun altitude
Rises 16:46:53 0° 165° (SSE) 3,225 7.1 -9.5°
Reaches altitude 10° 16:49:10 10° 165° (SSE) 2,302 6.3 -10.0°
Maximum altitude 16:54:15 90° 232° (SW) 774 4.0 -11.0°
Drops below altitude 10° 16:59:22 10° 347° (NNW) 2,316 6.7 -12.0°
Sets 17:01:41 0° 347° (NNW) 3,246 7.5 -12.5°
